Wind_Speed
18 18 18 19 19 18 18 17 17 18 18 17 17 18 21 22 22 22 23 22 22 22 22 22 23 23 23 23 25 26 28 30 29 27 26 22 16 16 19 20 17 13 16 18 17 18 18 21 22 21 18 15 14 14 16 17 14 10 5 4 7 6 6 5 6 6 3 3 2 3 3 3 7 13 16 13 4 1 5 9 10 15 8 9 14 13 26 35
18 18 19 20 21 20 18 18 18 19 20 20 17 16 17 20 21 22 22 22 23 23 22 22 21 22 22 23 24 25 29 29 31 29 19 10 6 11 18 21 19 17 19 20 18 17 16 18 20 19 17 14 12 14 15 15 17 10 3 5 9 6 5 4 4 6 4 5 4 5 7 7 8 11 16 12 2 1 1 3 9 11 7 10 14 15 28 35
18 19 20 20 21 21 20 20 20 19 20 20 19 18 17 17 18 21 22 22 22 22 22 21 20 21 20 22 23 23 27 29 32 22 5 4 5 9 14 18 19 20 20 20 18 17 15 15 15 15 15 14 14 16 14 13 14 11 6 6 8 4 4 6 6 10 11 9 6 8 11 13 17 17 14 9 3 2 2 2 6 11 14 17 18 21 31 37
18 19 20 21 21 21 21 20 19 19 19 20 19 19 20 18 16 19 21 21 22 22 22 22 20 20 19 20 20 21 23 25 22 7 9 7 7 7 6 9 16 21 21 20 19 18 16 14 12 12 12 11 14 15 12 14 12 9 10 7 4 5 6 11 13 16 17 16 11 10 10 13 22 21 15 8 4 4 6 10 11 15 20 23 24 30 36 40
20 20 21 22 21 22 22 21 21 20 20 20 19 19 19 19 18 17 18 20 21 21 22 22 21 19 18 17 17 19 18 13 4 12 11 8 9 8 8 9 12 19 21 20 21 20 17 15 12 10 9 6 11 11 9 19 15 5 10 8 5 6 5 9 14 16 18 19 15 10 7 13 20 18 17 10 5 6 8 13 16 20 24 24 29 36 39 41
21 21 22 23 23 22 22 22 23 22 21 21 20 19 19 19 20 18 17 18 19 21 21 21 21 18 16 16 17 14 8 5 7 14 8 6 7 6 9 10 11 14 17 20 21 21 18 15 12 9 6 4 8 7 8 21 20 6 6 7 9 12 8 10 13 13 17 16 13 8 7 14 13 12 18 14 10 11 13 12 15 20 23 25 31 38 40 42
21 21 22 22 23 23 22 22 23 24 23 21 20 20 19 20 20 19 19 17 18 19 19 19 19 17 15 16 17 11 11 17 12 13 5 1 1 4 6 6 9 11 13 18 21 21 19 16 14 10 6 4 6 7 10 17 18 11 6 4 8 12 12 16 18 17 19 16 13 11 9 12 9 11 17 17 22 25 22 17 14 20 23 27 32 37 40 42
22 22 22 22 23 23 23 23 23 23 24 23 22 21 20 20 20 20 20 19 18 17 18 18 17 16 14 14 14 10 18 22 11 10 10 9 6 2 1 2 5 6 10 16 19 20 19 16 17 13 5 5 6 7 13 13 11 10 8 6 7 12 15 19 20 20 22 21 18 14 11 14 17 17 16 22 34 32 23 15 14 23 26 28 31 36 38 40
22 22 22 23 23 24 24 24 24 23 23 24 24 23 21 21 21 21 20 19 19 18 18 16 15 15 13 14 11 12 22 20 12 14 18 17 14 10 7 4 2 4 7 12 15 18 18 16 19 17 6 7 9 6 9 9 7 6 8 9 9 11 16 18 18 19 20 21 18 11 10 16 23 18 12 24 33 25 15 8 17 26 29 30 31 35 38 40
22 22 22 23 23 24 24 26 25 23 22 23 24 24 23 23 22 21 20 19 18 18 17 15 14 14 13 14 9 11 20 14 10 14 18 20 19 15 11 7 4 5 6 9 13 17 19 17 19 20 10 7 7 6 7 7 5 5 9 13 14 14 18 18 18 20 19 19 17 11 8 16 22 12 7 18 19 12 11 11 20 27 29 31 32 34 37 39
23 23 23 24 24 24 25 27 26 24 24 24 23 23 23 23 23 22 21 20 18 17 16 14 12 13 15 14 12 17 18 11 10 13 15 17 18 16 13 10 9 8 8 10 13 15 18 18 15 15 10 6 5 6 9 9 8 10 7 7 12 14 17 18 16 19 15 11 14 12 9 15 18 7 9 19 12 9 13 15 21 27 28 29 31 33 34 37
23 23 24 25 25 26 26 27 27 25 25 26 25 24 23 23 23 23 23 21 19 17 15 13 11 14 17 17 25 28 20 14 14 16 15 14 15 16 15 14 14 11 10 12 13 14 16 17 15 14 9 6 3 2 6 9 9 13 10 4 6 7 10 14 13 17 13 7 10 9 6 10 10 7 15 22 14 13 15 18 23 26 27 28 29 31 32 33
23 24 24 25 25 26 27 27 28 27 27 28 27 26 25 25 25 24 23 22 20 17 15 13 12 15 17 22 33 34 30 27 25 25 23 21 23 23 20 19 18 15 13 13 14 13 12 13 15 19 16 7 3 3 6 7 5 8 7 3 5 5 6 8 9 14 12 9 12 7 4 8 6 10 19 19 14 19 18 21 24 25 25 27 28 30 31 32
24 24 25 26 26 27 28 28 30 30 29 29 29 28 27 26 24 23 23 23 21 18 14 12 11 15 18 26 34 33 29 27 26 25 20 21 27 26 23 22 21 18 14 14 13 11 9 7 8 15 19 14 8 8 8 5 2 3 3 3 4 4 4 5 8 9 7 10 15 11 6 9 6 11 20 17 15 22 20 22 25 24 25 26 28 29 30 32
24 25 26 26 28 29 29 30 31 32 31 30 29 28 27 24 21 19 20 22 20 15 12 10 12 15 17 26 33 27 16 14 15 13 11 14 20 21 22 23 23 20 15 15 14 10 7 6 7 8 11 13 11 7 5 3 2 2 4 4 4 5 4 4 7 10 8 7 13 14 5 7 7 10 18 17 15 20 19 22 25 24 25 26 27 28 28 27
25 26 27 28 29 30 31 32 31 31 31 30 29 27 25 21 18 18 19 19 16 11 9 9 12 13 12 17 20 17 13 14 13 10 12 13 14 16 15 20 24 20 16 15 13 10 8 7 9 8 6 7 8 3 1 3 4 3 5 4 3 5 3 4 6 8 11 7 8 12 6 4 5 10 18 18 16 19 17 19 23 24 25 26 27 27 25 22
26 26 28 29 31 32 32 32 31 31 30 29 28 27 24 20 18 17 16 13 9 7 9 9 10 10 15 17 17 19 18 13 12 14 14 13 14 16 13 16 22 20 16 15 14 11 10 9 7 6 6 4 4 5 4 7 7 3 1 3 3 4 5 4 6 5 10 8 7 9 7 5 5 9 17 19 18 20 16 17 22 23 23 23 24 24 23 23
26 27 29 30 31 32 32 32 31 28 27 28 28 27 23 19 17 13 10 7 3 2 4 9 8 6 13 17 17 22 19 12 16 21 18 15 16 16 12 15 20 19 14 11 14 13 11 9 5 3 4 6 5 8 9 7 6 4 3 4 3 2 5 7 5 5 8 8 8 7 6 8 8 8 12 17 18 19 18 19 22 21 21 21 22 23 24 26
27 28 29 30 31 30 30 30 29 26 26 28 26 25 21 18 15 8 6 8 6 3 4 8 10 7 10 16 22 27 27 23 26 30 23 14 14 13 10 13 15 16 10 5 8 12 11 5 4 5 7 10 9 10 9 2 6 8 5 5 5 4 4 5 5 6 6 7 7 8 6 6 9 9 9 13 15 17 19 17 15 17 20 22 23 24 26 27
27 28 28 29 28 28 28 28 28 25 25 27 26 23 18 16 12 5 9 18 18 15 16 17 18 21 24 29 37 36 33 29 26 28 21 8 8 10 12 12 10 10 8 4 5 10 11 5 7 10 9 10 10 9 8 3 3 8 5 4 5 5 5 5 5 6 4 6 6 7 7 7 9 9 8 13 13 12 13 10 12 19 23 25 25 23 25 27
27 27 27 27 27 27 27 27 27 24 24 25 22 18 15 12 8 8 16 22 22 19 21 26 26 31 33 36 40 35 29 25 22 26 22 14 12 8 11 13 8 6 6 4 2 7 11 9 11 10 6 7 8 8 7 6 5 5 5 5 4 5 5 5 5 6 3 4 4 3 6 7 9 9 9 12 10 7 10 9 13 21 24 25 24 24 25 26
26 26 27 28 28 28 28 27 26 24 24 20 15 16 15 9 8 14 18 16 21 21 22 29 30 33 36 37 39 34 26 20 23 29 21 13 14 11 12 11 7 6 6 4 2 4 8 11 10 8 5 6 7 7 8 8 9 4 4 5 4 4 3 5 6 6 2 3 4 4 4 7 8 9 9 9 8 9 16 16 17 24 24 23 25 26 28 27
27 27 28 29 30 31 30 28 27 25 21 15 16 19 14 7 9 16 16 13 20 22 22 26 27 30 33 33 31 25 22 15 18 28 18 7 13 17 13 8 7 6 8 9 8 7 7 8 8 8 6 7 6 7 9 7 7 6 4 4 4 4 3 3 5 6 2 3 3 3 3 6 6 7 7 8 10 10 13 15 20 27 29 30 31 32 34 32
28 29 30 32 32 32 29 28 27 22 17 16 18 14 7 7 11 14 14 10 12 15 21 22 20 23 21 19 16 13 20 17 15 23 16 8 13 16 12 8 7 6 9 12 11 8 6 3 10 10 7 9 7 7 10 8 6 5 5 5 4 4 5 4 3 5 3 3 1 3 3 6 5 7 8 8 7 6 6 10 16 23 28 31 32 34 37 37
30 30 31 33 33 29 27 28 25 18 18 18 12 5 5 9 9 11 11 6 5 10 15 11 9 12 9 7 8 11 15 16 21 24 14 9 13 11 9 10 8 7 11 11 8 8 6 4 12 14 10 11 10 8 11 10 6 5 6 8 7 5 6 5 3 4 5 5 3 3 2 6 5 6 9 7 4 4 6 10 15 19 23 27 30 33 36 36
31 30 31 33 31 26 25 25 21 20 22 15 6 5 7 6 6 9 6 3 4 5 6 5 4 5 3 4 6 8 6 9 20 26 18 14 13 8 6 8 6 6 9 8 5 4 5 7 10 14 13 13 11 9 11 11 7 6 6 8 8 6 6 5 1 1 2 3 5 2 4 5 5 5 8 9 7 5 6 7 12 18 24 27 32 37 39 37
31 30 31 32 29 24 22 21 20 22 20 9 3 5 5 3 5 7 3 2 4 3 4 5 4 5 6 9 5 6 3 4 10 19 23 19 14 10 6 4 4 5 6 6 4 4 7 9 9 13 14 12 12 9 9 12 8 5 6 11 8 7 7 5 3 3 2 3 5 1 4 2 4 6 7 7 6 4 5 6 9 15 24 29 33 39 43 42
32 31 31 29 26 21 18 17 17 16 12 5 3 3 4 6 6 4 1 1 3 2 2 3 5 7 10 15 8 12 6 5 1 9 19 19 13 9 4 4 5 5 8 9 6 4 9 11 10 13 13 10 10 7 8 11 7 4 6 11 9 8 8 5 4 2 2 2 5 3 3 1 4 7 6 2 3 4 5 9 10 13 23 30 33 40 43 41
31 30 28 25 22 18 14 12 11 11 8 3 3 4 7 8 5 2 2 0 3 1 1 3 5 7 10 14 8 16 14 7 3 2 15 18 15 9 2 5 5 5 11 11 7 2 7 13 12 10 11 9 7 6 8 11 7 4 7 8 6 5 4 3 4 3 1 2 7 5 3 1 4 7 5 1 2 6 6 8 9 11 20 26 29 34 37 36
30 28 23 20 19 17 13 10 9 9 7 5 4 6 8 6 2 2 0 1 2 2 2 4 6 6 8 10 4 9 11 8 5 1 12 16 16 12 5 6 5 3 8 9 7 5 4 13 13 8 8 7 8 7 8 10 7 4 6 6 4 2 1 1 1 3 2 5 8 7 6 4 3 6 4 3 4 6 7 7 8 9 15 23 26 30 34 37
28 23 18 17 17 15 13 12 9 8 8 6 6 7 6 2 3 1 1 2 2 4 4 4 6 7 7 7 3 3 5 5 5 2 7 9 11 10 5 5 3 1 4 6 8 10 6 8 9 6 9 9 8 9 8 9 8 5 5 5 3 2 1 2 2 2 4 6 6 6 7 6 4 6 6 7 7 7 10 11 12 12 16 25 29 32 37 40
24 19 16 15 15 12 11 12 10 9 9 6 6 5 2 1 1 2 2 4 3 2 2 4 7 9 10 9 4 4 3 3 3 2 3 3 6 7 4 4 3 3 4 5 6 8 7 5 4 4 11 13 9 7 6 7 8 6 5 6 5 3 2 4 3 2 5 5 4 5 7 4 5 7 9 10 8 8 11 12 17 18 20 26 31 35 39 41
20 16 14 12 12 10 8 9 8 7 5 3 3 3 1 1 2 3 2 2 1 1 2 6 10 11 11 7 2 4 3 3 4 4 3 4 5 5 5 6 4 3 3 4 6 5 4 3 5 5 8 13 11 7 7 7 8 9 6 7 8 5 5 8 5 2 3 4 5 4 4 3 4 5 10 12 10 12 15 16 22 27 29 33 34 35 36 39
17 13 12 10 10 8 7 7 4 3 2 1 1 2 1 1 3 3 3 3 3 4 4 6 11 12 8 4 2 2 2 3 4 6 5 4 4 4 5 7 7 2 2 4 5 6 4 3 6 7 5 10 13 8 7 7 8 10 5 5 6 5 6 6 4 3 3 3 3 2 3 4 3 4 8 9 10 14 16 15 18 22 24 27 28 29 32 35
14 10 10 9 10 9 8 7 3 1 0 1 2 1 0 2 3 3 3 4 3 5 6 8 9 8 5 4 4 4 1 3 4 6 5 4 4 4 3 4 6 4 2 4 3 4 5 5 5 7 6 9 12 8 8 9 7 8 4 5 5 5 4 2 3 6 5 2 1 2 3 4 4 5 6 4 5 8 9 10 12 14 16 20 24 27 31 35
11 8 11 12 12 11 8 7 5 2 1 2 2 1 3 3 3 3 3 4 5 7 9 9 4 3 5 4 3 4 1 1 3 3 3 5 4 4 3 2 5 6 3 4 3 3 5 4 3 6 8 9 11 10 9 9 7 5 5 6 4 4 4 2 2 1 4 4 3 1 3 4 3 4 6 6 1 3 6 8 10 13 18 22 25 29 32 34
11 7 12 15 14 13 8 6 4 3 2 2 1 2 3 3 4 4 4 7 8 7 7 6 3 3 5 3 2 5 4 2 1 1 2 4 2 4 5 3 4 8 6 4 1 1 5 3 5 8 11 11 12 13 10 10 8 5 7 7 3 3 1 2 1 2 4 3 4 1 4 4 1 3 5 6 0 4 4 6 7 10 17 21 24 29 32 33
12 5 11 16 15 14 9 4 2 4 2 1 3 5 3 4 5 6 7 10 9 6 4 4 2 2 3 3 3 6 6 3 4 3 2 3 2 5 7 4 3 8 9 6 1 2 2 2 5 7 11 9 9 10 8 10 11 7 6 6 5 3 2 1 2 2 2 2 3 1 2 3 3 4 3 0 4 5 4 6 7 10 15 19 24 28 30 31
11 3 8 15 15 14 10 5 1 4 3 1 3 4 3 5 8 9 11 11 8 5 4 2 1 1 3 3 3 5 5 3 3 3 1 3 2 5 8 6 4 7 8 8 4 3 0 1 3 5 10 8 5 6 7 9 10 6 6 7 5 3 3 3 3 3 3 3 3 1 2 3 5 5 6 7 8 7 7 7 9 11 15 21 26 30 32 34
10 2 6 14 16 13 11 7 3 3 3 2 3 3 4 7 9 13 15 11 5 4 3 2 1 2 3 3 2 2 3 3 3 2 1 3 3 4 7 8 5 5 7 8 5 2 2 1 2 2 5 7 5 6 8 9 8 5 6 7 5 2 2 3 2 2 4 3 3 3 1 5 6 4 6 9 9 9 11 11 10 11 17 22 26 31 35 38
11 2 5 14 16 13 11 7 3 3 2 3 3 4 6 8 10 14 16 11 6 6 6 3 2 3 3 3 2 1 2 3 1 1 2 2 3 2 5 10 8 4 6 6 5 3 1 1 1 2 3 6 6 5 7 9 8 7 5 5 6 5 3 3 2 2 2 4 4 5 3 6 6 3 4 6 7 10 12 12 10 13 20 25 27 31 35 36
10 2 4 13 15 13 10 5 2 2 3 4 6 7 10 10 9 10 10 8 5 4 5 3 3 3 2 2 2 2 2 2 1 1 2 2 3 3 6 12 11 6 7 5 3 4 3 0 1 3 3 6 5 5 9 11 11 8 5 4 5 5 5 5 4 3 1 2 2 4 2 5 6 4 4 5 6 8 11 11 10 14 24 29 30 31 30 27
7 4 5 12 15 13 8 2 2 2 3 8 12 12 12 8 5 6 7 6 4 2 2 2 2 2 1 1 2 3 3 2 2 3 2 3 3 6 8 12 13 7 5 4 2 4 4 1 2 4 2 2 2 1 7 10 10 7 4 4 5 6 5 5 4 4 4 3 2 3 1 5 6 4 4 6 7 7 10 13 11 13 20 26 28 28 25 23
9 8 7 13 14 9 5 2 3 5 6 10 12 12 10 5 4 6 6 5 4 2 2 2 2 2 2 2 3 4 3 1 2 3 3 2 3 6 7 9 15 10 5 5 5 6 5 2 1 1 1 3 2 2 3 6 7 5 4 4 5 6 7 4 2 3 2 4 4 5 3 6 6 4 2 1 3 5 8 13 13 9 10 17 22 23 23 23
9 6 6 15 16 5 1 4 5 5 9 12 11 11 9 4 4 8 7 6 6 3 2 3 2 2 2 4 4 5 3 3 3 3 2 3 4 6 7 5 11 12 8 10 11 9 5 2 2 2 3 5 5 4 4 5 4 2 4 6 4 6 9 5 3 3 1 3 3 5 4 6 6 5 5 4 4 4 4 8 11 8 8 14 19 22 24 26
6 3 5 14 16 5 3 9 7 4 6 9 8 7 8 7 8 9 7 6 5 4 3 3 2 1 3 4 3 3 3 4 5 3 3 3 3 5 8 9 7 11 13 14 12 8 2 1 3 5 5 5 5 5 5 5 5 3 5 7 4 5 7 6 5 4 4 3 2 3 6 4 7 6 6 5 2 5 5 6 9 11 13 17 20 22 25 26
4 2 3 8 9 5 7 9 6 4 8 9 4 5 9 10 9 7 4 3 4 4 3 3 3 2 2 4 3 3 4 4 3 3 4 4 3 7 10 7 5 12 15 13 9 6 1 2 3 4 5 5 4 5 4 5 7 6 7 8 5 5 7 8 5 5 5 5 2 7 5 3 6 7 6 4 1 3 5 5 7 13 17 19 21 23 24 25
6 3 4 6 5 3 6 10 11 10 12 10 3 3 9 12 9 7 5 5 6 4 2 1 3 3 6 8 6 4 6 6 2 2 3 3 4 8 6 3 4 7 11 7 5 5 2 3 4 4 4 4 4 2 5 6 6 5 7 8 7 7 7 7 6 6 7 6 6 6 6 5 6 6 5 1 2 3 3 5 8 14 18 20 23 24 24 26
7 4 5 8 7 7 10 15 17 13 11 9 4 3 8 11 10 8 5 4 5 3 2 2 3 6 9 6 3 4 4 3 3 2 2 4 5 6 4 4 6 3 3 2 1 4 3 3 4 3 3 2 6 3 5 8 5 5 4 3 7 8 9 7 5 5 6 5 5 7 7 7 7 6 4 1 1 2 5 8 11 15 18 20 22 23 23 25
9 7 9 11 10 11 13 14 12 8 7 7 5 4 7 9 10 11 7 6 5 3 3 5 7 9 9 5 3 4 4 3 4 5 2 4 5 3 3 1 2 6 4 1 1 2 2 3 3 1 3 4 7 6 9 11 9 8 7 6 4 5 5 4 3 3 4 1 2 5 7 6 6 4 1 4 6 8 7 9 12 15 19 21 22 22 24 26
11 10 11 11 8 7 8 8 7 5 4 4 5 6 8 9 11 12 9 6 3 5 7 9 11 9 6 5 4 5 6 5 6 8 7 6 5 3 3 1 2 5 5 3 2 1 2 1 2 3 4 3 6 5 10 12 11 9 8 9 7 3 4 3 3 2 4 4 3 5 6 5 6 2 3 6 6 6 5 7 11 16 20 22 22 23 24 26
15 14 12 8 5 5 6 7 6 5 3 4 7 10 10 11 14 12 7 3 2 8 11 9 10 8 4 5 6 5 6 10 13 17 17 15 13 10 9 8 5 3 3 2 2 1 2 3 1 4 4 3 6 4 5 8 9 5 4 4 5 3 2 4 3 3 0 4 6 5 5 6 3 2 4 3 1 3 5 9 13 17 21 22 23 24 23 25
Wind_Direction
336 338 338 335 333 329 323 320 317 312 309 306 305 308 312 312 308 302 295 293 293 295 298 300 299 300 303 303 304 307 308 306 303 300 289 281 282 271 251 242 236 218 211 209 206 206 206 208 207 207 211 211 216 215 209 207 202 197 189 210 222 213 206 185 178 198 221 269 271 233 257 233 264 302 312 308 287 192 166 162 161 173 187 200 204 209 184 179
334 338 337 335 334 331 330 325 317 312 314 313 299 295 303 308 309 310 306 298 292 291 295 299 299 299 303 303 304 307 309 307 304 299 291 285 271 249 242 237 227 209 208 209 207 206 203 208 209 208 211 206 209 208 205 205 203 202 144 203 224 202 206 193 185 224 241 258 291 306 318 322 285 309 327 315 298 87 132 133 145 152 137 169 184 184 182 182
335 338 335 334 334 335 336 332 327 322 320 318 303 291 290 296 306 309 309 307 301 294 292 295 299 302 303 304 304 307 310 311 307 300 260 203 206 219 238 235 220 204 204 208 208 210 204 206 210 207 209 207 206 201 197 197 200 208 195 220 228 201 253 255 239 241 248 271 300 304 312 314 296 307 324 306 291 294 234 183 153 149 145 159 170 176 182 182
337 336 332 333 333 334 333 330 330 325 320 318 314 305 292 287 297 305 305 306 307 304 298 294 294 300 304 305 305 309 313 316 308 262 168 188 176 164 202 212 214 208 204 206 208 210 207 206 208 202 203 211 212 206 200 196 191 198 204 223 214 184 249 248 246 252 258 272 277 287 306 300 294 303 308 286 285 297 234 207 186 174 168 163 169 178 181 180
340 337 334 334 333 333 332 331 329 324 321 320 318 315 307 294 285 295 303 303 305 307 306 299 294 294 299 303 304 310 318 326 275 171 170 187 162 140 128 141 190 210 210 210 211 210 209 208 204 199 204 211 212 212 214 207 201 202 216 223 219 208 237 243 245 251 256 264 269 281 294 287 292 298 298 292 250 257 258 228 204 193 188 179 178 178 177 180
344 341 339 338 335 333 332 330 328 327 327 325 322 318 317 307 291 287 294 301 303 302 304 304 301 293 292 297 299 307 303 281 188 164 160 157 141 119 122 130 161 196 215 215 214 213 213 210 204 199 194 209 219 217 216 212 211 225 235 215 219 227 239 256 255 254 256 256 258 270 272 280 293 295 294 294 267 276 305 280 223 203 196 188 181 177 179 181
344 342 341 339 336 333 331 329 328 330 330 328 326 321 318 315 306 291 284 292 296 297 299 300 306 299 289 288 291 298 259 257 228 174 170 172 113 94 120 134 158 186 212 215 216 216 217 210 202 196 180 210 228 223 223 220 217 224 241 221 224 234 242 255 260 264 266 261 261 269 270 275 280 287 293 291 284 288 303 297 230 198 189 182 180 182 185 185
341 339 337 336 335 335 332 330 328 328 328 327 327 324 320 314 310 301 287 283 286 292 293 293 305 303 291 287 297 294 256 259 253 209 242 266 249 224 185 173 171 198 214 218 219 218 221 211 200 196 190 222 211 211 221 228 234 226 234 247 244 247 251 259 262 264 267 269 273 271 260 261 263 273 284 282 284 287 294 289 211 186 181 182 185 186 185 184
339 337 335 333 332 332 331 329 328 328 325 325 325 324 323 316 311 309 299 288 285 286 288 289 295 301 294 284 295 285 259 263 280 256 250 253 244 240 251 233 214 241 225 226 225 224 223 213 208 200 197 236 223 223 211 212 240 222 222 241 245 249 255 263 266 265 266 269 271 266 258 264 266 272 276 272 279 282 277 245 189 180 179 184 186 185 183 184
339 337 335 333 331 330 328 327 327 329 326 322 321 319 321 320 318 316 311 304 294 287 286 282 284 297 292 279 282 272 265 272 287 263 242 244 248 243 240 236 259 266 241 231 227 228 222 216 218 211 220 255 235 245 216 199 244 234 217 232 241 245 252 257 261 264 265 267 262 251 260 269 267 262 255 269 276 262 226 187 182 181 181 184 183 184 185 186
336 335 334 333 332 330 328 329 330 330 327 323 320 317 317 318 319 319 317 313 304 295 286 274 275 282 280 274 256 251 263 274 275 263 239 240 249 243 232 234 259 266 247 235 222 222 222 220 219 210 225 251 235 262 250 233 253 265 253 246 250 244 248 249 251 259 258 265 257 242 252 266 263 239 237 261 258 213 196 177 183 182 180 183 182 185 186 188
335 334 333 331 332 331 330 331 331 330 324 321 320 318 316 313 313 313 312 310 303 298 287 272 264 268 276 267 249 250 263 272 275 274 258 253 255 247 242 244 253 257 251 245 224 213 220 223 218 210 215 226 211 263 272 255 249 263 270 279 275 260 253 243 240 251 244 249 248 237 263 262 254 231 245 254 228 197 193 181 186 184 180 182 183 186 187 190
334 333 332 330 329 329 329 328 328 326 321 319 318 316 317 316 314 308 307 305 297 294 284 269 257 262 272 263 257 264 273 278 283 278 263 258 262 256 251 248 247 246 246 246 228 210 214 221 226 228 229 228 215 235 289 298 258 251 249 229 265 281 266 227 222 242 237 243 233 210 260 252 248 245 248 251 207 185 183 181 187 184 181 182 183 186 188 192
334 332 331 329 328 327 327 326 325 324 321 320 316 314 316 318 317 313 308 300 290 285 276 262 253 258 263 261 269 280 285 284 281 274 265 264 270 264 248 243 244 243 242 242 233 219 210 211 229 235 238 240 251 278 306 326 269 219 209 198 211 233 260 206 194 213 223 246 217 193 246 249 260 259 246 243 201 184 179 180 187 183 181 183 184 186 190 194
333 332 330 328 327 327 326 325 324 323 323 321 315 312 315 319 318 313 302 292 287 279 262 250 245 253 263 268 279 290 289 273 266 282 308 297 287 273 246 236 242 243 241 238 233 229 216 217 233 226 236 238 238 272 323 338 297 200 197 212 191 204 274 257 207 195 203 239 197 182 245 254 248 254 242 240 207 193 188 182 187 184 182 184 186 189 191 194
333 331 330 328 327 326 326 325 324 323 324 322 316 310 312 319 318 309 301 295 291 269 234 237 244 245 260 276 289 292 272 260 270 306 324 309 303 293 258 235 238 239 235 233 228 231 224 226 238 223 217 219 205 199 3 307 271 230 202 201 178 185 236 276 253 208 194 216 194 186 224 247 242 240 233 235 214 204 199 187 189 187 185 185 187 190 189 186
332 330 328 328 327 326 325 324 324 326 326 323 316 310 313 321 318 312 311 302 287 251 221 233 253 256 258 268 281 281 275 276 288 302 306 300 300 303 282 238 233 232 231 232 226 229 224 216 219 213 215 208 163 146 187 232 224 228 172 180 208 176 177 221 269 245 186 199 219 202 214 224 252 248 228 226 212 205 203 194 194 189 186 184 184 187 185 184
330 328 327 327 326 326 324 323 325 328 327 322 317 313 315 321 318 314 316 323 322 279 233 234 242 268 260 257 269 277 283 295 297 296 293 287 291 295 274 235 227 224 226 231 227 219 209 208 197 175 202 202 187 174 195 216 189 176 147 167 223 193 188 201 225 240 180 188 217 201 210 227 249 267 239 228 209 201 207 204 199 188 178 178 182 184 183 187
329 328 327 327 326 326 325 323 325 329 326 321 318 315 318 324 326 316 299 320 322 286 266 234 214 234 265 267 277 282 285 290 293 291 286 285 295 287 248 228 220 209 202 204 215 202 184 181 184 192 206 200 201 194 199 210 140 168 170 152 183 198 229 217 219 244 188 185 220 204 203 218 237 255 252 238 212 201 212 211 195 175 168 176 182 180 181 189
329 329 328 328 327 326 325 324 325 328 326 322 320 323 334 340 341 327 292 299 295 280 271 259 240 244 261 272 279 282 284 286 285 282 281 281 293 273 226 213 203 191 187 167 178 183 172 179 211 206 205 194 199 196 199 245 156 162 169 163 177 187 233 241 248 266 199 185 231 203 196 214 230 239 246 244 229 210 210 197 172 165 168 178 178 173 177 188
330 330 329 329 328 326 323 322 323 325 324 321 318 326 342 342 335 313 307 302 296 290 275 271 265 256 261 269 275 279 283 286 280 274 272 261 262 254 203 191 180 185 188 161 150 171 171 205 221 202 187 180 190 184 177 220 219 164 165 194 208 192 229 250 250 268 206 174 247 186 187 230 237 233 236 238 238 231 214 186 164 169 175 178 172 167 174 185
331 331 331 330 329 326 322 320 319 320 321 316 311 316 319 324 323 311 312 304 295 295 282 279 273 264 266 270 272 273 271 276 278 273 271 255 238 211 183 181 185 183 162 161 192 179 193 221 209 173 164 165 174 177 170 200 219 211 161 168 215 213 246 276 271 277 214 160 257 240 217 249 252 245 242 232 224 230 229 214 185 177 176 171 167 169 175 182
332 332 332 330 329 327 323 319 315 316 316 307 306 309 303 311 321 313 313 299 293 294 282 278 271 264 269 274 276 268 250 249 269 267 259 215 200 191 181 181 188 169 158 188 195 180 208 221 177 157 167 164 174 179 170 194 213 215 182 157 215 219 191 239 272 280 234 158 215 219 264 277 283 284 272 249 234 230 235 223 199 189 183 177 178 181 183 187
331 331 331 329 328 327 323 317 313 315 309 301 311 313 300 312 316 320 320 293 286 291 284 284 274 266 272 283 287 253 231 230 238 250 249 210 199 192 185 179 172 179 187 196 200 204 233 200 154 160 172 170 183 182 176 197 209 205 200 182 204 216 195 206 268 298 327 351 185 136 330 297 279 283 280 273 253 222 204 188 191 195 188 182 182 186 191 196
329 328 327 328 329 327 321 315 315 315 308 308 321 329 314 310 310 331 329 288 277 289 293 300 271 265 283 303 280 227 224 228 228 239 242 201 195 188 186 182 172 200 199 189 203 224 253 222 163 165 183 183 187 193 187 192 200 217 212 191 191 203 219 238 298 351 25 346 282 145 261 283 275 265 261 270 271 213 184 168 180 186 178 176 178 184 193 198
329 327 327 329 331 329 321 317 316 313 313 317 329 319 308 295 306 332 329 278 289 285 303 317 270 280 322 321 276 217 220 248 240 242 236 214 205 190 183 184 186 210 190 175 210 228 233 230 184 174 184 187 194 207 196 183 189 224 196 173 186 195 218 239 249 72 100 260 277 149 188 263 304 284 254 256 256 224 193 176 180 176 171 176 182 187 193 195
331 328 329 330 329 327 319 314 314 314 316 318 304 306 310 306 326 336 334 302 297 273 303 296 285 320 320 320 307 178 173 302 245 233 225 221 222 213 204 182 177 193 169 163 217 207 186 206 204 186 182 188 202 205 190 178 183 222 167 156 183 204 216 218 151 162 216 254 293 10 138 213 293 270 250 247 243 213 185 187 187 176 175 181 186 190 194 197
333 330 330 328 323 320 314 311 316 322 323 310 284 308 340 341 338 347 42 344 301 273 289 269 274 297 307 318 283 206 240 340 41 216 213 213 215 204 201 201 185 176 171 181 208 178 166 196 204 186 187 199 200 184 165 169 182 220 157 150 181 207 219 217 144 186 276 314 295 314 109 160 275 270 268 232 189 202 199 197 194 185 184 185 189 193 195 196
334 331 330 324 316 314 317 319 323 329 329 297 294 340 349 341 336 13 98 41 315 285 253 278 291 295 308 321 274 222 249 287 347 194 183 191 204 196 195 226 210 186 187 195 215 177 166 198 202 184 196 202 179 163 157 169 192 202 149 145 174 195 212 213 174 187 215 240 255 246 166 177 274 281 294 17 191 212 205 204 203 191 189 191 192 193 193 194
336 333 331 321 313 313 319 327 328 324 316 290 309 342 337 332 10 45 55 296 309 282 288 287 294 311 310 315 284 216 235 249 291 268 162 171 190 202 242 243 223 204 194 194 218 247 204 195 199 196 205 187 158 172 172 172 184 163 141 151 185 197 75 45 152 136 167 241 250 221 172 164 261 282 268 213 220 201 177 193 207 190 189 195 195 194 193 193
339 337 335 323 316 318 320 326 329 314 298 288 316 333 318 321 90 107 278 318 289 276 305 281 274 302 302 308 312 208 211 231 277 266 165 158 170 192 235 240 225 148 179 180 205 247 263 201 199 197 187 168 156 183 186 175 180 173 146 148 182 240 0 355 4 99 199 242 258 211 166 155 214 266 256 231 233 204 183 186 189 187 191 193 193 195 195 194
342 339 339 330 324 327 324 322 316 296 287 288 313 320 306 9 33 218 262 336 314 277 318 292 293 309 307 312 307 204 207 228 226 202 186 141 149 186 195 198 185 124 176 188 181 225 255 235 230 199 181 177 167 176 181 179 188 190 160 148 171 187 187 224 222 193 221 240 250 194 157 166 224 243 252 248 238 214 203 192 181 183 190 192 192 194 195 195
345 343 347 341 333 333 328 324 309 281 278 270 289 310 72 15 283 240 264 305 286 267 313 299 300 308 310 316 290 207 223 218 188 183 190 137 138 185 195 207 207 134 169 177 158 191 249 279 244 212 188 183 177 171 177 185 187 191 181 164 179 177 185 212 213 219 243 242 242 197 157 232 260 252 245 239 228 209 204 198 188 186 189 191 192 191 192 195
348 351 359 354 346 345 347 348 320 238 220 203 336 30 64 279 263 267 283 261 255 279 294 308 305 308 322 353 343 286 211 212 184 162 168 148 146 184 202 216 221 211 126 148 161 181 194 252 223 203 190 177 184 189 168 158 175 197 185 134 175 190 180 200 201 192 216 243 251 194 152 192 196 241 248 237 230 209 196 193 190 191 192 189 187 186 188 194
353 359 8 7 4 0 359 0 344 238 192 33 30 40 237 263 266 281 280 254 280 300 296 304 302 308 349 25 343 337 135 206 195 156 157 157 162 191 201 202 206 211 148 151 186 181 187 256 238 200 205 179 184 190 151 144 174 197 161 127 196 197 148 144 174 174 169 165 218 188 198 215 202 251 299 317 251 210 169 158 166 180 186 181 183 187 190 194
354 6 16 17 13 2 354 354 344 291 311 9 20 276 240 246 252 269 283 276 301 317 314 312 307 331 355 10 341 331 353 200 192 169 155 149 161 188 198 209 188 189 174 156 198 172 168 267 280 182 209 205 182 177 168 168 170 167 175 188 198 161 130 120 186 147 102 148 225 216 212 279 302 268 328 7 287 194 135 141 157 167 172 175 185 193 194 195
351 3 16 18 14 1 348 346 338 261 266 19 26 248 248 244 239 239 275 299 305 310 317 324 358 24 349 333 334 334 333 338 336 333 127 137 180 188 193 238 184 186 199 168 199 195 154 251 274 173 198 219 186 174 185 182 160 154 193 192 119 93 127 93 135 2 59 153 252 288 190 246 271 232 320 13 122 207 150 140 147 158 168 178 189 194 197 198
343 347 13 14 9 359 346 344 325 241 253 350 268 264 245 229 239 242 273 299 304 299 306 314 334 36 353 323 324 330 331 351 4 358 119 151 247 195 183 213 202 202 204 163 153 294 140 259 273 181 188 211 184 171 189 192 183 177 174 163 142 166 216 108 153 188 100 177 247 327 244 234 194 216 266 290 213 209 153 146 161 170 179 185 188 192 196 197
346 336 12 7 1 358 351 343 290 232 243 259 263 274 253 251 266 270 283 295 295 288 288 272 238 292 319 310 309 325 334 350 352 347 144 159 232 210 181 178 213 216 187 155 170 281 344 208 263 193 178 180 174 176 190 198 198 178 146 161 169 158 162 166 168 159 155 187 201 219 314 261 231 220 186 192 212 190 161 177 188 188 190 188 186 188 191 193
4 350 10 2 355 353 347 332 277 226 245 248 242 262 271 280 287 287 289 292 279 265 257 233 267 299 295 291 303 330 329 314 314 324 231 188 222 243 193 177 210 215 163 158 185 260 323 232 263 251 175 169 187 201 192 189 187 171 167 177 176 151 144 154 154 139 139 155 176 169 222 260 255 218 177 195 204 187 181 190 198 200 195 192 190 189 190 193
15 2 353 358 352 344 340 329 267 232 252 255 247 258 280 292 296 296 295 289 266 245 246 259 275 277 289 299 324 0 306 297 285 271 293 220 189 257 215 191 197 182 146 167 201 207 252 235 274 300 184 181 198 192 174 174 174 171 177 183 173 165 142 128 180 243 118 136 167 159 190 263 262 208 206 220 202 197 196 190 196 201 193 192 195 194 194 195
12 350 346 357 353 341 331 315 248 238 240 282 293 277 281 290 292 298 300 296 292 253 236 244 250 254 266 267 286 303 293 298 271 224 278 249 208 228 215 194 188 173 159 179 209 188 186 289 309 286 229 211 218 178 162 167 168 165 171 181 169 159 141 135 176 232 167 142 152 124 147 269 263 211 222 244 227 215 207 197 199 199 194 192 193 194 195 194
351 324 349 359 352 341 333 293 261 285 264 295 303 287 279 281 279 298 303 298 310 306 235 233 244 256 238 216 267 289 299 297 256 237 259 277 238 221 210 190 187 183 160 169 192 179 186 220 284 292 283 248 318 40 163 166 160 162 176 170 162 167 163 151 169 185 174 179 139 105 183 271 274 248 222 232 238 227 214 215 217 208 198 193 189 189 190 185
330 315 343 3 355 338 340 350 308 315 313 310 313 305 292 262 232 278 298 303 309 317 301 277 230 218 247 256 249 266 302 309 253 260 257 275 254 245 250 208 194 192 169 176 175 168 185 200 239 297 60 102 58 44 154 178 176 174 166 152 155 154 142 138 150 134 167 208 151 127 211 255 266 279 291 213 190 203 216 216 218 221 204 190 184 182 180 177
340 323 328 353 356 338 295 356 320 308 323 320 317 319 317 295 267 277 275 283 291 284 283 276 236 199 257 277 269 270 271 197 226 292 269 284 290 268 295 277 206 192 187 193 176 159 182 194 131 150 141 149 171 189 193 187 185 161 126 134 148 145 142 154 150 115 202 229 134 133 211 260 287 309 341 21 106 150 199 197 197 203 189 179 177 175 175 176
358 352 315 341 353 351 298 323 314 295 321 323 315 317 328 330 318 303 275 257 265 263 261 260 257 232 233 254 280 282 260 218 233 288 301 293 287 260 291 302 240 191 191 199 179 144 147 207 151 155 164 174 187 210 211 154 133 126 128 135 143 141 132 119 118 148 189 171 143 209 211 257 301 305 314 329 80 138 169 172 171 171 166 169 172 172 173 173
19 12 335 340 345 337 321 321 322 318 309 312 311 304 320 326 323 323 310 267 274 283 269 241 254 286 297 316 323 296 308 302 243 255 288 270 261 281 289 288 214 192 196 199 183 150 81 287 213 160 173 211 217 203 187 138 139 155 144 140 148 144 121 107 133 188 162 124 265 260 219 212 269 272 271 285 316 163 181 174 164 160 159 163 166 166 166 167
27 345 334 350 334 309 326 316 313 319 310 306 300 279 313 326 327 330 321 288 291 297 286 245 249 295 338 347 346 318 321 334 303 253 297 286 301 319 327 57 103 186 197 199 187 163 144 270 231 161 168 256 289 191 148 133 139 141 134 143 153 155 147 140 175 195 154 152 226 228 194 205 240 260 267 272 302 264 197 154 156 154 153 157 159 158 159 160
14 337 315 339 322 279 287 292 294 305 307 308 311 293 318 325 321 324 316 288 300 291 236 273 303 335 340 335 325 315 317 332 313 284 317 325 323 336 4 54 41 42 168 199 222 154 145 260 240 163 126 350 342 359 108 110 97 64 67 132 150 155 164 161 175 178 145 168 215 181 179 224 244 252 273 336 109 172 140 137 145 145 146 149 149 149 151 155
6 353 323 321 310 286 284 287 293 300 301 310 320 312 320 318 318 327 313 278 294 304 293 312 319 327 327 305 261 275 271 268 271 258 282 334 326 346 21 39 359 1 9 347 295 133 146 248 262 112 81 0 344 15 77 91 89 70 43 20 55 116 135 123 119 124 110 115 236 163 173 237 265 245 261 63 104 129 139 145 145 145 146 144 141 144 150 154
3 359 337 317 303 301 301 300 308 308 302 329 334 322 325 319 318 324 307 269 274 296 305 321 320 315 312 301 281 261 258 259 253 251 263 278 271 281 332 345 12 0 352 340 330 11 127 193 310 65 73 331 333 41 82 88 81 68 41 8 1 50 122 106 88 123 151 161 137 132 168 232 263 239 62 54 95 133 160 161 148 148 150 147 142 143 148 155
355 357 352 329 296 303 319 316 319 316 312 337 328 319 315 308 311 317 309 285 276 282 284 290 298 303 307 303 294 270 271 280 277 277 275 265 258 259 263 271 289 312 304 325 336 297 129 111 59 75 86 303 320 25 82 80 63 30 349 333 319 310 126 104 48 15 44 149 138 148 204 233 230 135 79 47 130 189 193 177 161 155 155 154 152 152 159 168
Height
1513 1512 1510 1508 1506 1504 1502 1501 1500 1498 1497 1496 1495 1494 1493 1491 1490 1488 1487 1485 1485 1484 1483 1482 1481 1480 1479 1477 1476 1474 1471 1468 1466 1466 1464 1462 1462 1463 1462 1462 1464 1467 1467 1467 1467 1468 1469 1471 1472 1474 1475 1476 1476 1477 1479 1479 1481 1482 1483 1486 1483 1480 1477 1472 1471 1471 1468 1466 1465 1465 1466 1468 1467 1463 1462 1461 1459 1457 1457 1456 1457 1458 1458 1460 1461 1462 1463 1466
1513 1511 1509 1507 1505 1503 1501 1500 1498 1497 1495 1494 1493 1492 1491 1490 1489 1487 1485 1484 1483 1482 1481 1480 1480 1478 1477 1476 1475 1473 1470 1467 1464 1462 1461 1460 1460 1459 1458 1459 1461 1464 1464 1465 1466 1467 1468 1469 1471 1472 1473 1474 1474 1475 1476 1477 1478 1477 1479 1481 1475 1472 1471 1467 1468 1468 1466 1466 1465 1465 1466 1466 1465 1463 1462 1462 1460 1458 1459 1458 1457 1458 1459 1460 1461 1462 1464 1466
1512 1510 1509 1507 1505 1503 1501 1499 1498 1496 1494 1493 1491 1490 1489 1488 1487 1486 1485 1483 1481 1480 1479 1478 1478 1477 1476 1475 1474 1472 1469 1466 1462 1459 1458 1458 1457 1456 1455 1456 1459 1461 1462 1464 1465 1466 1467 1468 1469 1471 1472 1472 1472 1473 1473 1474 1474 1474 1476 1475 1469 1468 1469 1466 1467 1466 1465 1466 1464 1465 1466 1464 1463 1463 1463 1463 1461 1460 1460 1459 1457 1457 1458 1459 1460 1462 1464 1466
1511 1510 1508 1506 1504 1502 1500 1498 1497 1495 1493 1492 1490 1489 1487 1486 1486 1484 1483 1482 1481 1479 1478 1477 1476 1475 1475 1474 1473 1471 1469 1465 1459 1455 1455 1456 1455 1454 1453 1454 1457 1459 1461 1463 1464 1465 1465 1466 1467 1469 1470 1470 1470 1471 1471 1470 1471 1471 1470 1468 1466 1467 1467 1466 1466 1466 1466 1466 1465 1465 1466 1464 1461 1462 1462 1462 1463 1462 1459 1457 1456 1456 1456 1458 1460 1462 1463 1464
1511 1509 1507 1505 1503 1501 1499 1497 1495 1494 1492 1490 1488 1487 1485 1484 1483 1482 1482 1481 1480 1479 1477 1476 1474 1474 1474 1473 1472 1471 1471 1466 1455 1452 1454 1454 1453 1453 1452 1452 1455 1458 1460 1462 1462 1463 1464 1465 1466 1467 1469 1469 1469 1468 1467 1466 1467 1466 1462 1462 1464 1466 1466 1464 1465 1466 1466 1465 1465 1465 1466 1464 1461 1461 1460 1460 1463 1460 1457 1456 1456 1455 1455 1456 1458 1461 1463 1464
1510 1508 1507 1505 1503 1501 1499 1497 1494 1492 1490 1488 1487 1485 1484 1483 1481 1481 1480 1479 1478 1477 1476 1475 1473 1473 1473 1472 1471 1470 1472 1463 1451 1452 1453 1452 1452 1451 1452 1452 1453 1456 1458 1460 1461 1462 1462 1463 1464 1465 1466 1466 1466 1465 1463 1463 1465 1463 1460 1461 1463 1464 1464 1463 1464 1464 1465 1464 1464 1465 1466 1464 1462 1461 1458 1458 1458 1456 1456 1455 1455 1454 1454 1454 1456 1459 1461 1463
1509 1507 1506 1504 1502 1500 1498 1496 1494 1491 1489 1487 1485 1484 1483 1481 1480 1479 1478 1477 1477 1476 1475 1474 1472 1472 1471 1471 1470 1470 1470 1458 1449 1453 1452 1452 1452 1451 1452 1452 1453 1454 1456 1458 1458 1460 1460 1461 1462 1463 1464 1464 1464 1463 1462 1462 1462 1461 1460 1460 1461 1462 1462 1462 1463 1463 1463 1463 1463 1465 1465 1463 1463 1461 1458 1456 1454 1454 1456 1455 1454 1454 1455 1456 1456 1457 1458 1460
1508 1506 1505 1503 1501 1499 1498 1495 1493 1491 1488 1486 1484 1482 1481 1479 1478 1476 1475 1475 1474 1474 1473 1473 1472 1471 1470 1470 1468 1469 1464 1451 1447 1452 1452 1451 1451 1451 1452 1452 1452 1453 1454 1456 1457 1458 1459 1460 1460 1462 1463 1462 1461 1461 1461 1462 1460 1459 1460 1459 1460 1461 1460 1461 1461 1462 1462 1462 1463 1465 1463 1461 1461 1461 1459 1454 1452 1454 1455 1453 1453 1453 1454 1456 1456 1457 1459 1462
1507 1505 1504 1502 1500 1498 1496 1494 1492 1490 1488 1485 1483 1481 1479 1477 1476 1474 1473 1473 1472 1472 1471 1471 1471 1470 1470 1468 1469 1467 1453 1444 1447 1450 1449 1449 1449 1451 1452 1451 1452 1452 1453 1454 1455 1457 1458 1459 1459 1460 1461 1460 1460 1459 1459 1462 1460 1457 1459 1459 1459 1459 1459 1460 1460 1460 1461 1461 1462 1463 1461 1459 1460 1461 1458 1452 1451 1453 1454 1453 1453 1453 1454 1455 1456 1458 1460 1462
1506 1504 1503 1501 1499 1497 1495 1493 1491 1489 1487 1484 1482 1480 1477 1475 1474 1472 1471 1470 1470 1469 1469 1470 1469 1469 1469 1467 1469 1462 1445 1443 1447 1446 1447 1447 1447 1449 1450 1451 1451 1451 1452 1452 1454 1455 1456 1458 1458 1460 1461 1459 1459 1459 1458 1459 1457 1455 1457 1457 1457 1458 1457 1458 1458 1458 1460 1459 1460 1461 1460 1458 1458 1460 1457 1451 1452 1452 1452 1453 1453 1453 1454 1455 1457 1458 1460 1462
1505 1503 1501 1499 1497 1495 1493 1491 1489 1487 1485 1483 1481 1478 1476 1474 1472 1470 1469 1468 1468 1467 1467 1467 1467 1468 1466 1466 1467 1455 1442 1444 1445 1444 1446 1446 1447 1448 1449 1450 1450 1450 1451 1450 1452 1453 1455 1457 1459 1461 1461 1458 1458 1458 1456 1456 1456 1455 1456 1456 1455 1456 1455 1456 1456 1456 1458 1458 1458 1459 1459 1456 1456 1457 1454 1451 1453 1453 1452 1452 1453 1454 1455 1457 1458 1460 1462 1463
1504 1502 1500 1498 1496 1494 1492 1489 1487 1485 1483 1481 1479 1476 1474 1472 1470 1469 1467 1466 1465 1465 1464 1464 1466 1465 1464 1463 1457 1445 1441 1444 1444 1445 1446 1445 1446 1446 1447 1448 1449 1449 1450 1450 1450 1452 1454 1456 1458 1459 1457 1457 1457 1457 1455 1454 1455 1455 1456 1457 1455 1455 1454 1453 1453 1454 1456 1456 1455 1459 1460 1457 1454 1452 1450 1450 1452 1452 1452 1451 1452 1454 1456 1458 1460 1462 1464 1466
1502 1500 1498 1496 1494 1492 1490 1488 1486 1483 1481 1479 1476 1474 1472 1470 1468 1466 1465 1464 1463 1462 1462 1462 1463 1463 1463 1456 1445 1441 1443 1443 1443 1443 1443 1444 1444 1443 1445 1446 1446 1448 1448 1448 1449 1451 1453 1454 1456 1456 1455 1456 1456 1454 1453 1452 1453 1453 1454 1456 1456 1456 1453 1449 1451 1452 1453 1454 1454 1460 1464 1457 1452 1449 1447 1449 1450 1451 1451 1451 1451 1453 1456 1458 1460 1462 1464 1466
1501 1499 1497 1495 1492 1490 1488 1486 1483 1481 1479 1476 1473 1471 1469 1467 1466 1464 1462 1460 1459 1460 1460 1460 1460 1461 1459 1448 1439 1441 1443 1441 1440 1439 1439 1441 1440 1440 1443 1444 1445 1446 1447 1448 1448 1450 1451 1452 1454 1455 1454 1455 1454 1454 1453 1452 1452 1452 1453 1454 1455 1459 1454 1446 1447 1449 1450 1451 1451 1458 1463 1457 1451 1448 1445 1447 1449 1449 1450 1450 1451 1453 1455 1458 1460 1462 1464 1466
1499 1497 1495 1493 1490 1488 1486 1483 1481 1478 1476 1474 1471 1468 1466 1465 1463 1461 1460 1457 1456 1457 1457 1458 1458 1459 1455 1445 1439 1440 1440 1439 1437 1436 1437 1438 1438 1437 1440 1442 1443 1444 1446 1447 1447 1449 1450 1451 1453 1453 1452 1453 1455 1456 1455 1455 1452 1451 1454 1455 1453 1456 1454 1445 1444 1446 1447 1449 1448 1455 1461 1455 1449 1447 1444 1445 1447 1447 1448 1448 1449 1452 1454 1457 1459 1461 1464 1467
1497 1495 1493 1491 1488 1486 1484 1481 1479 1477 1474 1471 1468 1466 1464 1463 1461 1459 1457 1454 1454 1454 1455 1456 1456 1457 1454 1444 1439 1438 1437 1437 1435 1436 1437 1437 1437 1436 1438 1440 1441 1443 1445 1445 1446 1448 1449 1450 1450 1451 1451 1451 1453 1456 1459 1459 1455 1450 1452 1454 1452 1454 1455 1448 1443 1441 1443 1446 1446 1450 1454 1451 1447 1444 1443 1444 1445 1446 1446 1446 1448 1450 1453 1455 1458 1460 1464 1467
1496 1494 1491 1489 1487 1484 1482 1479 1477 1475 1473 1469 1466 1463 1462 1461 1459 1457 1455 1453 1453 1452 1454 1454 1454 1455 1449 1440 1438 1435 1434 1436 1435 1435 1435 1435 1436 1435 1436 1437 1438 1442 1443 1444 1446 1446 1447 1448 1448 1449 1449 1450 1450 1454 1461 1460 1456 1454 1452 1453 1452 1451 1453 1450 1444 1440 1440 1444 1444 1446 1449 1448 1444 1442 1441 1442 1442 1444 1445 1446 1447 1449 1452 1455 1457 1460 1463 1464
1495 1493 1490 1488 1485 1483 1480 1478 1475 1474 1471 1467 1464 1462 1460 1459 1457 1455 1453 1452 1452 1452 1453 1452 1454 1454 1443 1435 1436 1433 1432 1435 1434 1434 1433 1434 1434 1433 1434 1435 1437 1440 1442 1443 1443 1444 1446 1445 1446 1448 1447 1448 1447 1449 1453 1449 1448 1454 1453 1453 1452 1450 1450 1448 1443 1438 1438 1442 1443 1445 1448 1447 1444 1441 1440 1440 1441 1442 1442 1444 1445 1448 1451 1454 1456 1458 1460 1461
1494 1491 1489 1486 1484 1481 1478 1476 1474 1472 1469 1465 1463 1461 1459 1458 1455 1454 1453 1452 1452 1452 1452 1449 1450 1449 1439 1432 1432 1430 1431 1433 1432 1431 1431 1432 1432 1432 1432 1434 1435 1437 1439 1440 1440 1441 1442 1444 1445 1445 1441 1440 1440 1441 1445 1442 1443 1449 1450 1450 1450 1450 1448 1445 1440 1436 1435 1440 1442 1443 1447 1446 1443 1441 1439 1438 1439 1441 1441 1443 1446 1448 1451 1453 1454 1455 1457 1460
1492 1490 1487 1484 1482 1480 1477 1475 1472 1471 1468 1464 1462 1459 1458 1456 1455 1453 1451 1450 1450 1449 1448 1445 1444 1440 1435 1432 1429 1428 1430 1431 1430 1428 1429 1431 1431 1430 1431 1432 1434 1435 1436 1437 1438 1438 1440 1444 1441 1435 1433 1435 1438 1440 1442 1442 1442 1446 1448 1448 1447 1448 1446 1442 1438 1435 1434 1438 1439 1440 1443 1443 1441 1440 1438 1437 1438 1439 1441 1443 1445 1448 1449 1450 1452 1454 1456 1458
1490 1488 1485 1483 1480 1478 1475 1473 1471 1469 1467 1464 1462 1460 1460 1459 1458 1455 1449 1444 1443 1444 1442 1439 1439 1435 1431 1429 1425 1426 1429 1427 1426 1425 1426 1429 1430 1430 1430 1430 1432 1433 1433 1434 1435 1436 1438 1439 1432 1430 1433 1435 1437 1440 1442 1443 1443 1445 1447 1448 1448 1448 1445 1440 1438 1435 1434 1438 1439 1438 1441 1440 1438 1438 1437 1436 1437 1438 1438 1441 1443 1445 1446 1448 1450 1452 1455 1457
1489 1486 1484 1481 1479 1476 1473 1471 1469 1467 1466 1464 1462 1461 1461 1461 1460 1457 1453 1443 1436 1439 1438 1433 1433 1430 1426 1424 1421 1426 1429 1424 1422 1420 1422 1425 1426 1428 1427 1428 1429 1429 1432 1434 1434 1436 1436 1429 1426 1430 1434 1434 1437 1439 1441 1443 1443 1446 1447 1448 1449 1448 1445 1441 1437 1435 1434 1437 1438 1437 1439 1438 1434 1434 1434 1434 1435 1435 1435 1437 1439 1441 1443 1446 1448 1450 1453 1455
1487 1484 1482 1479 1477 1474 1471 1469 1467 1465 1464 1463 1462 1460 1460 1460 1459 1457 1456 1447 1434 1432 1433 1429 1428 1425 1422 1420 1419 1423 1425 1423 1421 1416 1418 1423 1422 1424 1425 1426 1428 1428 1431 1431 1429 1432 1432 1426 1426 1431 1432 1434 1437 1438 1440 1442 1443 1445 1447 1449 1448 1445 1446 1444 1438 1435 1434 1436 1436 1436 1438 1437 1434 1432 1430 1430 1431 1433 1434 1436 1437 1438 1438 1441 1444 1446 1448 1450
1485 1483 1480 1477 1475 1472 1469 1466 1464 1463 1462 1461 1460 1459 1458 1459 1458 1456 1454 1449 1437 1428 1426 1425 1424 1422 1420 1418 1417 1419 1419 1420 1420 1413 1415 1420 1420 1422 1423 1424 1427 1427 1427 1427 1427 1428 1426 1423 1425 1429 1431 1433 1436 1437 1439 1441 1444 1445 1445 1448 1447 1444 1443 1441 1438 1436 1434 1435 1434 1436 1442 1440 1434 1433 1430 1426 1429 1432 1433 1435 1436 1437 1437 1439 1442 1444 1445 1446
1483 1481 1478 1475 1472 1469 1466 1463 1461 1462 1460 1460 1460 1458 1458 1458 1457 1456 1453 1451 1442 1428 1423 1423 1422 1419 1417 1416 1415 1415 1416 1415 1414 1411 1414 1417 1418 1420 1421 1422 1425 1425 1424 1426 1429 1429 1426 1423 1423 1427 1430 1431 1433 1435 1435 1438 1444 1445 1443 1443 1444 1443 1441 1440 1440 1440 1441 1443 1436 1436 1449 1446 1434 1433 1432 1427 1428 1431 1432 1433 1434 1436 1438 1440 1441 1443 1445 1446
1481 1479 1475 1472 1470 1467 1465 1461 1459 1460 1458 1458 1458 1457 1458 1456 1456 1456 1454 1455 1447 1430 1423 1423 1421 1417 1415 1415 1414 1414 1417 1412 1407 1409 1413 1415 1416 1418 1420 1421 1421 1422 1424 1426 1430 1428 1425 1423 1422 1424 1427 1429 1432 1432 1431 1434 1442 1445 1439 1438 1441 1442 1442 1442 1442 1443 1448 1449 1438 1436 1449 1450 1438 1431 1429 1426 1428 1430 1431 1432 1432 1433 1436 1437 1438 1440 1441 1443
1479 1476 1473 1470 1468 1466 1463 1460 1459 1459 1457 1457 1456 1456 1456 1455 1456 1454 1454 1459 1447 1429 1424 1422 1419 1417 1414 1414 1414 1414 1414 1407 1402 1405 1409 1412 1415 1416 1418 1419 1419 1421 1421 1426 1430 1422 1419 1423 1423 1422 1425 1428 1429 1429 1428 1430 1439 1442 1435 1435 1441 1441 1443 1443 1444 1446 1447 1446 1441 1438 1442 1449 1445 1432 1426 1426 1428 1431 1432 1433 1432 1432 1433 1434 1435 1436 1436 1437
1476 1473 1470 1468 1465 1464 1462 1460 1459 1458 1456 1456 1455 1456 1455 1454 1455 1453 1457 1460 1440 1423 1423 1421 1417 1416 1414 1413 1412 1410 1407 1402 1402 1403 1405 1410 1414 1415 1417 1417 1417 1419 1418 1422 1424 1416 1415 1420 1420 1420 1423 1424 1423 1424 1426 1429 1436 1436 1431 1434 1439 1440 1441 1442 1445 1447 1446 1447 1449 1444 1441 1450 1450 1431 1424 1428 1429 1432 1434 1432 1431 1430 1430 1431 1432 1433 1433 1435
1474 1471 1468 1465 1463 1462 1461 1460 1459 1457 1456 1455 1455 1455 1454 1454 1454 1452 1460 1456 1432 1420 1423 1419 1416 1415 1413 1411 1409 1407 1405 1403 1404 1403 1403 1408 1412 1413 1416 1416 1416 1417 1416 1417 1419 1415 1414 1416 1416 1419 1421 1420 1420 1422 1424 1428 1432 1431 1430 1433 1436 1439 1441 1442 1446 1446 1448 1453 1453 1446 1442 1450 1450 1431 1424 1431 1430 1430 1433 1431 1429 1428 1430 1431 1431 1432 1434 1435
1472 1468 1466 1463 1461 1461 1460 1459 1458 1457 1456 1455 1454 1454 1453 1454 1454 1457 1461 1449 1429 1424 1421 1417 1415 1414 1412 1410 1406 1405 1405 1404 1404 1404 1404 1407 1410 1412 1414 1414 1415 1416 1415 1417 1418 1414 1411 1413 1415 1416 1416 1416 1419 1422 1423 1426 1429 1429 1431 1434 1437 1441 1440 1441 1444 1445 1452 1456 1449 1444 1440 1445 1451 1435 1423 1427 1425 1423 1428 1429 1429 1428 1429 1430 1430 1432 1433 1433
1470 1466 1464 1462 1460 1459 1459 1458 1457 1456 1455 1454 1454 1453 1454 1454 1456 1460 1454 1437 1428 1425 1419 1416 1414 1411 1410 1410 1407 1405 1404 1405 1403 1404 1405 1405 1410 1413 1413 1414 1415 1416 1416 1418 1419 1415 1412 1413 1412 1410 1412 1415 1418 1421 1423 1424 1426 1428 1430 1435 1441 1445 1444 1446 1447 1447 1456 1455 1442 1439 1439 1442 1451 1438 1419 1418 1417 1416 1418 1419 1422 1424 1424 1425 1426 1428 1430 1431
1468 1465 1463 1461 1460 1459 1458 1457 1456 1455 1454 1454 1454 1453 1453 1455 1457 1454 1443 1432 1429 1425 1420 1418 1413 1409 1409 1407 1407 1405 1404 1405 1403 1402 1404 1405 1409 1412 1412 1414 1414 1416 1419 1419 1418 1417 1415 1412 1410 1409 1410 1412 1416 1421 1425 1425 1426 1429 1431 1436 1445 1451 1452 1454 1453 1451 1454 1450 1437 1435 1439 1441 1443 1430 1415 1412 1412 1412 1411 1409 1412 1416 1418 1421 1422 1424 1426 1429
1467 1465 1463 1461 1460 1459 1458 1456 1455 1454 1454 1454 1454 1453 1454 1457 1453 1443 1437 1434 1430 1422 1420 1418 1412 1409 1408 1406 1406 1404 1403 1403 1401 1402 1403 1404 1409 1411 1411 1411 1409 1412 1415 1415 1417 1420 1418 1413 1410 1410 1409 1408 1411 1418 1424 1425 1425 1427 1430 1434 1442 1449 1454 1456 1454 1452 1452 1444 1433 1433 1438 1438 1434 1421 1410 1408 1407 1406 1406 1407 1408 1409 1412 1414 1417 1421 1425 1428
1467 1465 1463 1461 1460 1459 1457 1456 1455 1454 1454 1454 1454 1453 1454 1455 1446 1436 1434 1433 1426 1421 1420 1418 1414 1410 1406 1405 1405 1402 1403 1402 1399 1401 1403 1404 1409 1410 1409 1410 1408 1409 1410 1411 1415 1417 1419 1416 1409 1407 1406 1404 1406 1411 1414 1418 1422 1424 1424 1429 1435 1436 1441 1447 1448 1447 1447 1441 1435 1436 1436 1433 1426 1414 1405 1403 1402 1401 1403 1407 1409 1410 1412 1415 1419 1423 1425 1427
1467 1465 1463 1462 1460 1459 1458 1457 1456 1456 1456 1455 1455 1456 1457 1453 1444 1438 1435 1430 1425 1423 1420 1417 1415 1411 1406 1406 1406 1402 1402 1401 1398 1399 1403 1405 1407 1408 1407 1407 1408 1409 1409 1411 1413 1412 1416 1414 1402 1401 1403 1401 1404 1407 1408 1414 1422 1422 1421 1426 1430 1426 1426 1436 1440 1438 1437 1435 1435 1436 1430 1422 1415 1408 1404 1404 1402 1402 1405 1407 1410 1413 1416 1419 1422 1424 1424 1425
1467 1465 1464 1462 1460 1459 1458 1458 1457 1457 1456 1456 1457 1458 1456 1450 1443 1438 1433 1428 1427 1426 1421 1417 1413 1412 1410 1408 1409 1406 1401 1400 1398 1399 1402 1404 1405 1406 1405 1404 1405 1407 1407 1408 1409 1409 1415 1412 1399 1399 1401 1398 1401 1404 1404 1411 1417 1420 1422 1423 1420 1417 1419 1430 1438 1438 1437 1434 1436 1435 1426 1418 1414 1407 1405 1405 1403 1405 1408 1408 1411 1412 1415 1418 1420 1421 1422 1423
1466 1465 1464 1462 1460 1459 1458 1457 1457 1457 1456 1457 1458 1456 1451 1445 1439 1436 1432 1428 1427 1426 1425 1422 1416 1415 1415 1412 1411 1408 1402 1400 1398 1397 1399 1402 1403 1403 1403 1403 1403 1404 1404 1405 1406 1405 1410 1408 1397 1397 1401 1397 1398 1402 1403 1405 1408 1415 1420 1416 1414 1418 1421 1425 1433 1439 1443 1439 1436 1436 1426 1419 1419 1413 1407 1406 1405 1408 1410 1410 1412 1413 1415 1416 1417 1419 1421 1422
1465 1464 1463 1462 1461 1459 1458 1457 1457 1457 1457 1457 1457 1451 1446 1441 1435 1433 1431 1428 1427 1426 1426 1426 1420 1417 1418 1416 1413 1408 1403 1401 1400 1398 1398 1400 1400 1399 1401 1402 1401 1401 1401 1403 1406 1405 1405 1405 1396 1393 1397 1396 1396 1401 1406 1404 1401 1405 1410 1409 1414 1424 1427 1429 1433 1438 1444 1442 1437 1436 1432 1423 1418 1412 1406 1405 1405 1407 1411 1412 1412 1412 1412 1413 1415 1417 1420 1422
1464 1464 1463 1462 1461 1459 1458 1458 1457 1457 1457 1457 1456 1449 1442 1437 1432 1430 1430 1428 1427 1426 1426 1425 1422 1419 1418 1417 1415 1411 1407 1405 1404 1402 1400 1400 1399 1396 1397 1399 1400 1399 1400 1403 1407 1405 1404 1406 1400 1391 1391 1394 1396 1401 1406 1404 1401 1402 1405 1407 1410 1416 1421 1425 1429 1430 1435 1440 1438 1436 1436 1425 1412 1405 1401 1400 1403 1406 1410 1411 1410 1409 1409 1409 1412 1414 1416 1419
1464 1463 1463 1461 1461 1459 1459 1458 1456 1457 1457 1454 1452 1447 1440 1435 1431 1428 1428 1428 1426 1425 1424 1423 1422 1421 1418 1415 1414 1413 1411 1408 1406 1405 1401 1400 1399 1396 1395 1397 1397 1398 1399 1402 1404 1404 1403 1405 1402 1393 1390 1394 1396 1396 1397 1399 1402 1404 1406 1408 1410 1412 1414 1417 1424 1426 1424 1432 1437 1437 1437 1423 1406 1402 1400 1397 1401 1404 1404 1405 1406 1406 1407 1409 1410 1411 1413 1415
1464 1464 1463 1461 1461 1459 1459 1458 1456 1456 1455 1451 1448 1445 1440 1435 1431 1426 1425 1425 1424 1422 1421 1420 1421 1421 1418 1416 1414 1413 1412 1409 1407 1406 1402 1398 1397 1396 1393 1393 1395 1397 1399 1402 1403 1404 1404 1403 1403 1398 1394 1394 1391 1387 1389 1392 1398 1402 1403 1407 1408 1410 1414 1419 1427 1427 1420 1423 1429 1430 1430 1417 1402 1402 1402 1398 1401 1401 1399 1400 1402 1403 1405 1407 1409 1410 1412 1414
1465 1465 1463 1462 1461 1459 1459 1458 1456 1455 1453 1449 1446 1442 1439 1435 1431 1426 1423 1423 1422 1420 1420 1420 1420 1419 1418 1417 1415 1413 1412 1409 1406 1405 1401 1397 1396 1394 1391 1390 1393 1395 1397 1401 1401 1401 1403 1404 1405 1402 1395 1392 1386 1383 1386 1388 1392 1397 1399 1402 1405 1406 1411 1417 1423 1423 1419 1422 1425 1425 1424 1413 1401 1402 1402 1400 1400 1399 1398 1399 1399 1400 1401 1403 1406 1410 1414 1417
1467 1465 1463 1462 1461 1459 1459 1457 1455 1454 1452 1447 1443 1440 1436 1434 1432 1427 1424 1422 1421 1420 1420 1419 1419 1418 1417 1417 1416 1413 1411 1408 1405 1403 1400 1397 1393 1390 1389 1389 1392 1393 1395 1398 1399 1399 1402 1405 1405 1400 1393 1389 1385 1382 1384 1385 1389 1396 1397 1399 1402 1403 1404 1407 1412 1413 1414 1419 1421 1424 1426 1412 1399 1401 1402 1399 1399 1398 1399 1400 1399 1400 1400 1401 1406 1409 1414 1418
1467 1465 1463 1462 1461 1459 1460 1459 1457 1454 1450 1446 1442 1437 1433 1432 1431 1428 1425 1423 1421 1420 1420 1419 1418 1418 1417 1416 1415 1412 1410 1408 1405 1401 1399 1397 1392 1388 1388 1388 1389 1391 1391 1394 1395 1396 1400 1403 1404 1403 1398 1395 1394 1393 1392 1389 1389 1392 1396 1397 1398 1399 1401 1404 1408 1409 1412 1418 1418 1419 1423 1411 1398 1399 1399 1397 1399 1398 1398 1399 1399 1401 1402 1404 1407 1410 1414 1418
1467 1465 1462 1461 1461 1460 1460 1460 1459 1456 1451 1447 1444 1437 1433 1431 1428 1426 1424 1422 1420 1420 1420 1418 1416 1417 1417 1416 1414 1411 1409 1409 1406 1401 1397 1396 1392 1386 1385 1386 1387 1387 1388 1390 1390 1392 1397 1400 1400 1403 1404 1403 1402 1400 1397 1393 1391 1392 1393 1395 1396 1398 1398 1401 1407 1409 1413 1421 1419 1414 1414 1405 1396 1396 1395 1395 1398 1398 1397 1398 1398 1401 1403 1405 1408 1410 1413 1417
1469 1468 1465 1461 1459 1459 1460 1459 1459 1458 1454 1451 1446 1438 1434 1432 1427 1424 1423 1422 1419 1418 1418 1416 1415 1416 1417 1416 1414 1412 1408 1406 1405 1402 1399 1398 1394 1387 1384 1384 1384 1384 1386 1388 1388 1390 1395 1396 1396 1397 1397 1396 1395 1393 1390 1388 1391 1394 1394 1394 1395 1397 1396 1399 1406 1409 1410 1418 1417 1411 1409 1403 1395 1394 1394 1395 1397 1396 1396 1397 1397 1399 1402 1404 1407 1410 1413 1417
1472 1473 1471 1467 1463 1460 1458 1457 1457 1457 1455 1453 1448 1440 1436 1434 1429 1425 1422 1421 1419 1418 1417 1415 1414 1414 1415 1414 1413 1411 1408 1405 1404 1402 1400 1398 1394 1387 1381 1380 1382 1383 1385 1387 1388 1390 1393 1395 1395 1393 1390 1389 1387 1386 1385 1384 1387 1391 1393 1393 1395 1397 1397 1398 1403 1406 1408 1414 1414 1411 1411 1406 1397 1394 1394 1396 1398 1396 1395 1396 1397 1399 1401 1404 1407 1410 1414 1418
1474 1474 1474 1473 1470 1466 1462 1458 1456 1455 1453 1451 1448 1442 1438 1436 1433 1429 1425 1420 1418 1417 1417 1416 1415 1414 1414 1413 1412 1410 1408 1406 1403 1401 1399 1397 1394 1388 1381 1379 1381 1383 1385 1387 1387 1389 1392 1394 1394 1391 1390 1391 1389 1385 1382 1382 1385 1387 1389 1392 1394 1396 1396 1395 1398 1402 1404 1406 1407 1409 1411 1405 1396 1392 1394 1398 1400 1398 1397 1397 1398 1399 1401 1404 1408 1411 1414 1419
1476 1475 1473 1473 1472 1469 1466 1461 1458 1456 1453 1449 1446 1443 1440 1438 1434 1431 1427 1423 1419 1417 1417 1417 1414 1413 1413 1413 1413 1412 1409 1407 1404 1402 1400 1398 1397 1393 1386 1384 1384 1385 1386 1387 1386 1388 1392 1393 1392 1391 1390 1392 1391 1387 1382 1382 1388 1393 1395 1395 1393 1394 1396 1394 1396 1403 1404 1402 1403 1406 1407 1401 1395 1394 1396 1399 1399 1398 1399 1400 1399 1401 1403 1405 1408 1412 1415 1420
1479 1478 1475 1473 1470 1466 1464 1461 1458 1456 1453 1449 1447 1444 1441 1439 1435 1431 1427 1424 1421 1417 1416 1416 1415 1412 1412 1413 1412 1411 1408 1407 1406 1404 1401 1400 1399 1395 1392 1392 1390 1388 1388 1387 1386 1388 1390 1393 1393 1389 1389 1393 1393 1390 1386 1386 1393 1400 1403 1401 1397 1395 1396 1396 1400 1406 1406 1404 1406 1408 1406 1400 1397 1398 1399 1398 1399 1399 1401 1401 1401 1402 1403 1405 1409 1412 1415 1419
1481 1480 1477 1475 1470 1465 1462 1460 1458 1456 1453 1450 1448 1445 1441 1438 1436 1433 1427 1422 1421 1420 1417 1416 1414 1411 1411 1411 1411 1409 1406 1403 1404 1402 1400 1400 1400 1397 1396 1395 1394 1394 1393 1388 1387 1387 1388 1391 1392 1387 1390 1396 1395 1393 1391 1388 1392 1399 1403 1406 1405 1399 1398 1400 1403 1407 1405 1404 1409 1412 1406 1399 1397 1399 1399 1399 1400 1401 1402 1402 1402 1403 1404 1406 1409 1413 1417 1420
1480 1478 1477 1476 1472 1466 1463 1460 1457 1456 1454 1451 1450 1447 1443 1439 1435 1434 1429 1421 1419 1419 1417 1415 1413 1411 1410 1410 1408 1406 1404 1401 1400 1398 1397 1397 1397 1396 1397 1397 1396 1398 1398 1393 1390 1389 1386 1387 1389 1389 1394 1399 1398 1398 1393 1388 1395 1405 1408 1410 1410 1404 1401 1401 1404 1408 1409 1407 1407 1406 1401 1398 1398 1398 1398 1400 1402 1403 1403 1403 1402 1402 1404 1407 1410 1413 1417 1420